This demonstration page uses our WeatherBlox Daily Observations layout. Learn more.

Left ArrowRight Arrow

Hourly Observations for March 13, 2021

Temp ( °F °C ) Dew Point ( °F °C ) Humidity (%) Winds ( mph kmh ) Pressure ( in mb ) Visibility ( mi km ) Precip ( " mm )
12:53 am 00:53 Clear 56 13.3 49 9.4 77 77 Calm 30.26 1025 10 16 0.00 0.00
1:53 am 01:53 Clear 55 12.8 49 9.4 80 80 Calm 30.26 1025 10 16 0.00 0.00
2:53 am 02:53 Clear 53 11.7 48 8.9 83 83 Calm 30.24 1024 10 16 0.00 0.00
3:53 am 03:53 Clear 53 11.7 49 9.4 86 86 Calm 30.23 1024 10 16 0.00 0.00
4:53 am 04:53 Clear 53 11.7 49 9.4 86 86 Calm 30.24 1024 10 16 0.00 0.00
5:53 am 05:53 Clear 52 11.1 48 8.9 86 86 Calm 30.24 1024 10 16 0.00 0.00
6:53 am 06:53 Sunny 51 10.6 47 8.3 86 86 W 3 6 30.24 1024 10 16 0.00 0.00
7:53 am 07:53 Sunny 54 12.2 49 9.4 83 83 Calm 30.27 1025 10 16 0.00 0.00
8:53 am 08:53 Sunny 59 15 53 11.7 81 81 Calm 30.28 1026 10 16 0.00 0.00
9:53 am 09:53 Sunny 66 18.9 56 13.3 70 70 Calm 30.30 1026 10 16 0.00 0.00
10:53 am 10:53 Sunny 71 21.7 58 14.4 63 63 Calm 30.28 1025 10 16 0.00 0.00
11:53 am 11:53 Sunny 74 23.3 56 13.3 54 54 VRB 7 11 30.27 1025 10 16 0.00 0.00
12:53 pm 12:53 Mostly Sunny 76 24.4 55 12.8 48 48 WNW 9 15 30.24 1024 10 16 0.00 0.00
1:53 pm 13:53 Cloudy 77 25 55 12.8 47 47 NNW 6 9 30.21 1023 10 16 0.00 0.00
2:53 pm 14:53 Cloudy 77 25 57 13.9 50 50 N 8 13 30.19 1023 10 16 0.00 0.00
3:53 pm 15:53 Mostly Cloudy 76 24.4 55 12.8 48 48 VRB 6 9 30.18 1022 10 16 0.00 0.00
4:53 pm 16:53 Mostly Cloudy 76 24.4 56 13.3 50 50 NW 7 11 30.17 1022 10 16 0.00 0.00
5:53 pm 17:53 Partly Cloudy 74 23.3 56 13.3 54 54 N 6 9 30.17 1022 10 16 0.00 0.00
6:53 pm 18:53 Cloudy 72 22.2 57 13.9 59 59 N 3 6 30.18 1022 10 16 0.00 0.00
7:53 pm 19:53 Cloudy 69 20.6 57 13.9 66 66 Calm 30.19 1022 10 16 0.00 0.00
8:53 pm 20:53 Cloudy 68 20 58 14.4 70 70 Calm 30.18 1022 10 16 0.00 0.00
9:53 pm 21:53 Cloudy 66 18.9 58 14.4 75 75 Calm 30.18 1022 10 16 0.00 0.00
10:53 pm 22:53 Mostly Cloudy 63 17.2 57 13.9 81 81 Calm 30.17 1022 10 16 0.00 0.00
11:53 pm 23:53 Partly Cloudy 61 16.1 57 13.9 87 87 Calm 30.16 1021 10 16 0.00 0.00

Powered by AerisWeather